[[{"header":{"parameterUnit":"m.s-1","parameterCategory":1,"la1":30.2991,"la2":30.254,"lo1":-89.0895,"lo2":-89.0444,"dy":0.0017,"dx":0.0017,"nx":28,"ny":28,"refTime":"2025-03-24T21:00:00:Z","depth":0,"parameterNumber":2,"parameterNumberName":"U-component_of_WINDS"},"data":[0,0,0,0,0,0,0,0,0,0,0,0,0,0,0,0,0,0,0,0,0,0,0,0,0,0,0,0,0,0,0,0,0,0,0,0,0,0,0,0,0,0,0,0,0,0,0,0,0,0,0,0,0,0,0,0,0,0,-1.182,-1.182,0,-1.1844,-1.1844,-1.1844,-1.1825,-1.1824,-1.1823,-1.1822,-1.1847,-1.1849,-1.185,0,0,0,0,0,0,0,0,0,0,0,0,0,-1.176,-1.1761,-1.182,-1.182,-1.1821,-1.1844,-1.1844,-1.1844,-1.1825,-1.1824,-1.1823,-1.1822,-1.1847,-1.1848,-1.185,0,0,0,0,0,0,0,0,0,0,0,0,0,-1.1785,-1.1761,-1.182,-1.1814,-1.1813,-1.1844,-1.1844,-1.1844,-1.1825,-1.1824,-1.1823,-1.1822,-1.1846,-1.1848,-1.185,-1.1888,0,0,-1.1857,-1.1858,0,0,0,0,0,0,0,0,-1.1783,-1.1787,-1.1814,-1.1814,-1.1814,-1.183,-1.1832,-1.1859,-1.1826,-1.1821,-1.1822,-1.1821,-1.1842,-1.1845,-1.1852,-1.1889,-1.189,-1.1857,-1.1858,-1.1859,-1.186,0,0,0,0,0,0,0,-1.1782,-1.1786,-1.1829,-1.1815,-1.1815,-1.181,-1.1812,-1.1837,-1.1838,-1.1821,-1.182,-1.1823,-1.1842,-1.185,-1.1852,-1.1891,-1.1857,-1.1859,-1.186,-1.1861,-1.1961,-1.1962,0,0,0,0,0,0,-1.178,-1.1785,-1.1829,-1.183,-1.1795,-1.1812,-1.1815,-1.1826,-1.1838,-1.1839,-1.1824,-1.1822,-1.1847,-1.185,-1.1853,-1.1898,-1.1859,-1.1861,-1.1862,-1.1959,-1.1961,-1.1963,0,0,0,0,0,0,-1.1779,-1.1784,-1.1828,-1.1807,-1.1812,-1.1815,-1.1828,-1.1827,-1.1835,-1.184,-1.184,-1.1831,-1.1846,-1.185,-1.188,-1.1899,-1.1862,-1.1864,-1.1958,-1.196,-1.1962,-1.1988,0,0,0,0,0,0,-1.1777,-1.1784,-1.1798,-1.1807,-1.1813,-1.1853,-1.1829,-1.1829,-1.1839,-1.1836,-1.1847,-1.1848,-1.1845,-1.1877,-1.1882,-1.1901,-1.1866,-1.1956,-1.1959,-1.1961,-1.1986,-1.1991,-1.1995,0,0,0,0,0,-1.1775,-1.1804,-1.1799,-1.1804,-1.1831,-1.1854,-1.1858,-1.1854,-1.184,-1.1854,-1.1858,-1.1847,-1.1896,-1.188,-1.1885,-1.1906,-1.1955,-1.1958,-1.1961,-1.1983,-1.199,-1.1995,0,0,0,0,0,0,-1.1797,-1.1805,-1.1799,-1.1832,-1.1843,-1.1851,-1.1869,-1.1861,-1.1876,-1.1873,-1.1869,-1.1871,-1.1902,-1.1907,-1.1889,-1.1943,-1.1923,-1.1928,-1.1938,-1.1945,-1.1949,-1.1947,-1.1867,0,0,0,0,0,-1.1806,-1.1824,-1.183,-1.1859,-1.1865,-1.1866,-1.1876,-1.1873,-1.1883,-1.1888,-1.1893,-1.1904,-1.1922,-1.1934,-1.1951,-1.1987,-1.1989,-1.2004,-1.2009,-1.2013,-1.2016,-1.2036,-1.2043,-1.1973,-1.1973,-1.1973,0,0,-1.1823,-1.183,-1.1842,-1.1863,-1.1871,-1.189,-1.187,-1.1891,-1.1905,-1.1891,-1.1919,-1.1924,-1.1936,-1.1969,-1.1984,-1.1974,-1.2036,-1.2017,-1.202,-1.2021,-1.204,-1.2046,-1.2052,-1.1975,-1.1974,-1.1974,0,0,-1.1865,-1.1873,-1.1897,-1.1906,-1.1918,-1.1919,-1.1925,-1.1935,-1.1937,-1.1965,-1.1955,-1.1973,-1.2004,-1.2013,-1.2022,-1.2069,-1.206,-1.2075,-1.21,-1.212,-1.2125,-1.213,-1.2147,-1.2153,-1.2079,-1.2079,-1.2079,0,-1.1886,-1.1914,-1.1911,-1.1933,-1.1943,-1.1932,-1.1957,-1.1965,-1.1982,-1.199,-1.1979,-1.2018,-1.2025,-1.206,-1.2072,-1.208,-1.2087,-1.2073,-1.2125,-1.2129,-1.2134,-1.215,-1.2156,-1.208,-1.208,-1.208,-1.208,0,-1.1938,-1.1958,-1.1977,-1.1994,-1.2006,-1.203,-1.203,-1.2043,-1.204,-1.2042,-1.2072,-1.208,-1.2099,-1.2107,-1.2104,-1.2143,-1.2136,-1.2125,-1.2105,-1.2142,-1.2157,-1.2163,-1.2083,-1.2082,-1.2082,-1.2081,0,0,-1.1992,-1.2008,-1.2015,-1.2023,-1.2037,-1.2052,-1.2076,-1.2094,-1.2105,-1.2118,-1.2138,-1.2165,-1.2155,-1.2165,-1.2163,-1.2181,-1.2218,-1.2167,-1.2168,-1.2176,-1.2261,-1.2268,-1.2275,-1.2213,-1.2214,-1.2215,-1.226,0,-1.2034,-1.2075,-1.2073,-1.2111,-1.213,-1.2121,-1.2142,-1.2153,-1.2156,-1.2173,-1.2177,-1.2196,-1.2182,-1.2188,-1.2205,-1.2209,-1.2234,-1.2206,-1.2231,-1.2232,-1.2226,-1.2283,-1.2291,-1.2332,-1.2265,-1.2266,-1.2267,0,-1.2088,-1.2103,-1.2143,-1.2154,-1.2162,-1.2181,-1.2198,-1.2214,-1.2227,-1.2228,-1.224,-1.2236,-1.2261,-1.2241,-1.2275,-1.2256,-1.2266,-1.227,-1.2272,-1.2273,-1.2251,-1.2285,-1.2346,-1.2352,-1.2276,-1.2276,-1.2275,0,-1.2122,-1.2153,-1.2181,-1.2188,-1.2202,-1.2216,-1.2222,-1.2234,-1.2245,-1.2261,-1.2268,-1.2287,-1.2296,-1.2311,-1.2312,-1.2297,-1.2346,-1.2327,-1.2348,-1.2348,-1.2357,-1.2356,-1.242,-1.2366,-1.2366,-1.2366,-1.2366,0,-1.2169,-1.2193,-1.2196,-1.2213,-1.2241,-1.224,-1.2268,-1.2273,-1.2284,-1.2302,-1.2296,-1.2314,-1.2314,-1.2332,-1.2333,-1.2361,-1.2366,-1.2368,-1.2368,-1.2368,-1.2368,-1.2373,-1.237,-1.2367,-1.2367,-1.2367,-1.2366,0,-1.2211,-1.2214,-1.2244,-1.2256,-1.2259,-1.2279,-1.2289,-1.2306,-1.231,-1.2333,-1.2339,-1.2345,-1.2366,-1.2369,-1.2393,-1.2394,-1.2428,-1.2425,-1.2423,-1.2422,-1.2443,-1.2441,-1.2512,-1.2521,-1.2462,-1.2463,-1.2463,0,-1.2239,-1.2258,-1.2272,-1.2284,-1.2292,-1.2311,-1.2323,-1.2324,-1.2336,-1.2353,-1.2368,-1.2388,-1.2405,-1.2439,-1.2446,-1.2465,-1.2462,-1.2486,-1.2465,-1.2465,-1.2462,-1.246,-1.2462,-1.2489,-1.249,-1.249,-1.2491,0,-1.229,-1.2291,-1.2308,-1.2326,-1.234,-1.2355,-1.2368,-1.2379,-1.2381,-1.2396,-1.2417,-1.243,-1.2456,-1.2477,-1.2496,-1.2503,-1.2498,-1.2498,-1.2504,-1.2503,-1.2501,-1.2502,-1.2433,-1.2496,-1.2495,-1.2495,-1.2495,-1.2494,-1.2325,-1.2342,-1.2354,-1.2374,-1.2385,-1.2398,-1.2414,-1.242,-1.2438,-1.2459,-1.2459,-1.2483,-1.2497,-1.2522,-1.2531,-1.255,-1.2542,-1.2551,-1.2553,-1.2555,-1.2556,-1.2499,-1.2554,-1.2554,-1.2554,-1.2553,-1.2553,0,-1.2374,-1.2383,-1.2401,-1.242,-1.2436,-1.243,-1.2445,-1.2459,-1.248,-1.2493,-1.251,-1.2535,-1.2556,-1.2565,-1.2585,-1.2599,-1.2597,-1.2604,-1.2602,-1.2604,-1.2562,-1.2555,-1.2605,-1.2605,-1.2605,-1.2605,-1.2605,-1.2605,-1.2402,-1.2429,-1.2432,-1.2465,-1.2474,-1.2497,-1.2506,-1.2518,-1.2529,-1.2558,-1.2575,-1.2581,-1.2593,-1.2614,-1.2633,-1.2635,-1.2643,-1.2651,-1.2652,-1.2612,-1.2607,-1.2602,-1.2595,-1.2653,-1.2653,-1.2692,-1.2692,-1.2693]},{"header":{"parameterUnit":"m.s-1","parameterCategory":1,"la1":30.2991,"la2":30.254,"lo1":-89.0895,"lo2":-89.0444,"dy":0.0017,"dx":0.0017,"nx":28,"ny":28,"refTime":"2025-03-24T21:00:00:Z","depth":0,"parameterNumber":3,"parameterNumberName":"V-component_of_WINDS"},"data":[0,0,0,0,0,0,0,0,0,0,0,0,0,0,0,0,0,0,0,0,0,0,0,0,0,0,0,0,0,0,0,0,0,0,0,0,0,0,0,0,0,0,0,0,0,0,0,0,0,0,0,0,0,0,0,0,0,0,1.3446,1.3446,0,1.3447,1.3447,1.3447,1.3467,1.3467,1.3468,1.3468,1.3466,1.3465,1.3465,0,0,0,0,0,0,0,0,0,0,0,0,0,1.3459,1.3459,1.3446,1.3446,1.3446,1.3447,1.3447,1.3447,1.3467,1.3467,1.3468,1.3468,1.3466,1.3465,1.3465,0,0,0,0,0,0,0,0,0,0,0,0,0,1.3456,1.3459,1.3446,1.3456,1.3457,1.3447,1.3447,1.3447,1.3466,1.3467,1.3468,1.3469,1.3466,1.3465,1.3464,1.3444,0,0,1.3462,1.3462,0,0,0,0,0,0,0,0,1.3456,1.3456,1.3455,1.3456,1.3457,1.3458,1.3451,1.3446,1.3466,1.3463,1.3468,1.3469,1.3462,1.3462,1.346,1.3444,1.3444,1.3462,1.3461,1.3461,1.3461,0,0,0,0,0,0,0,1.3456,1.3456,1.3447,1.3455,1.3456,1.346,1.346,1.345,1.3458,1.3463,1.3465,1.3465,1.3463,1.3461,1.346,1.3444,1.3462,1.3461,1.3461,1.346,1.3413,1.3412,0,0,0,0,0,0,1.3456,1.3456,1.3447,1.3447,1.3458,1.3459,1.3459,1.3456,1.3458,1.3459,1.3464,1.3465,1.3462,1.3461,1.346,1.3438,1.3461,1.346,1.346,1.3413,1.3412,1.3412,0,0,0,0,0,0,1.3456,1.3455,1.3447,1.3452,1.3451,1.3458,1.3454,1.3456,1.3454,1.3459,1.346,1.3461,1.3462,1.3461,1.3449,1.3438,1.346,1.3459,1.3414,1.3413,1.3412,1.3392,0,0,0,0,0,0,1.3456,1.3455,1.3448,1.3451,1.3451,1.3436,1.3454,1.3456,1.3453,1.3455,1.3456,1.3457,1.3463,1.345,1.3448,1.3437,1.3459,1.3415,1.3414,1.3412,1.3393,1.339,1.3387,0,0,0,0,0,1.3457,1.3441,1.3447,1.3446,1.3442,1.3435,1.3435,1.3443,1.3452,1.3445,1.3448,1.3457,1.3439,1.3448,1.3446,1.3435,1.3416,1.3414,1.3412,1.3395,1.3391,1.3387,0,0,0,0,0,0,1.3434,1.3442,1.3449,1.3434,1.3434,1.3438,1.3429,1.3438,1.3434,1.3436,1.3445,1.3445,1.3431,1.3432,1.3442,1.3416,1.3429,1.3427,1.3416,1.3413,1.3409,1.341,1.3458,0,0,0,0,0,1.3428,1.3422,1.3429,1.3415,1.3415,1.3422,1.3419,1.3426,1.3426,1.3425,1.3427,1.3426,1.3421,1.3416,1.3411,1.3393,1.3394,1.3385,1.3382,1.3379,1.3377,1.3368,1.3365,1.3406,1.3406,1.3406,0,0,1.3414,1.3417,1.3413,1.3411,1.3411,1.3405,1.3422,1.3414,1.3409,1.3424,1.3413,1.3414,1.3413,1.3398,1.3392,1.3398,1.3366,1.3377,1.3375,1.3374,1.3366,1.3362,1.3359,1.3405,1.3405,1.3405,0,0,1.3386,1.3388,1.3377,1.3378,1.338,1.3385,1.3382,1.3386,1.3388,1.3377,1.3388,1.3382,1.3371,1.3371,1.3369,1.3342,1.335,1.334,1.3323,1.3315,1.3312,1.3309,1.33,1.3296,1.3338,1.3338,1.3338,0,1.3369,1.336,1.337,1.3363,1.3361,1.3375,1.3365,1.3364,1.3363,1.3362,1.337,1.3358,1.3358,1.3344,1.3337,1.3335,1.3333,1.334,1.3312,1.3309,1.3306,1.3298,1.3294,1.3336,1.3337,1.3337,1.3337,0,1.3339,1.3333,1.3324,1.3325,1.3322,1.3313,1.3321,1.3317,1.3324,1.3328,1.3317,1.3318,1.3314,1.3311,1.3316,1.3297,1.3302,1.331,1.3324,1.3301,1.3293,1.329,1.3335,1.3335,1.3336,1.3336,0,0,1.3297,1.3304,1.3301,1.3302,1.3305,1.33,1.3291,1.3288,1.3285,1.3284,1.3277,1.3268,1.3277,1.3275,1.3281,1.3273,1.3253,1.3283,1.3283,1.3278,1.3232,1.3226,1.3222,1.3258,1.3258,1.3257,1.3233,0,1.3271,1.3257,1.3266,1.3251,1.3246,1.3259,1.3252,1.3253,1.3256,1.3252,1.3255,1.325,1.3261,1.326,1.3253,1.3257,1.3244,1.3258,1.3251,1.3251,1.3252,1.3218,1.3212,1.3188,1.323,1.3229,1.3229,0,1.3238,1.3237,1.3222,1.3227,1.3225,1.3218,1.3217,1.3213,1.3214,1.3217,1.3216,1.3224,1.3215,1.3228,1.3216,1.3226,1.3224,1.3225,1.3224,1.3224,1.3239,1.3218,1.3181,1.3178,1.3224,1.3224,1.3225,0,1.321,1.3205,1.3195,1.3195,1.3201,1.3196,1.3197,1.32,1.3198,1.3196,1.3195,1.3192,1.319,1.3187,1.3194,1.3203,1.3182,1.3195,1.3184,1.3184,1.3179,1.3179,1.3142,1.3177,1.3177,1.3177,1.3177,0,1.318,1.317,1.3183,1.3177,1.3166,1.3177,1.3166,1.3169,1.3171,1.3165,1.3176,1.3171,1.318,1.3175,1.318,1.317,1.3169,1.3172,1.3173,1.3171,1.3171,1.317,1.3172,1.3176,1.3176,1.3176,1.3176,0,1.3147,1.3155,1.3145,1.3152,1.3153,1.3145,1.315,1.3145,1.315,1.3143,1.3142,1.3149,1.3144,1.3151,1.3146,1.315,1.3136,1.314,1.3136,1.3138,1.3126,1.3128,1.3088,1.3083,1.312,1.3119,1.3119,0,1.3127,1.312,1.3126,1.3124,1.3126,1.3122,1.312,1.313,1.3128,1.3129,1.3124,1.312,1.3118,1.311,1.3114,1.3111,1.3115,1.3101,1.3114,1.3113,1.3116,1.3116,1.3116,1.3099,1.3098,1.3098,1.3097,0,1.3092,1.3097,1.3095,1.3095,1.3093,1.3093,1.3093,1.309,1.3101,1.3098,1.3094,1.3092,1.3088,1.3085,1.3083,1.3084,1.3093,1.3093,1.3091,1.3089,1.3087,1.3089,1.313,1.3094,1.3095,1.3095,1.3095,1.3095,1.3066,1.3061,1.3065,1.3062,1.3064,1.3064,1.306,1.3065,1.3062,1.3061,1.3066,1.3061,1.3063,1.3062,1.3062,1.3058,1.3064,1.306,1.3059,1.3058,1.3056,1.3088,1.3057,1.3057,1.3057,1.3058,1.3058,0,1.3032,1.3036,1.3033,1.3034,1.3033,1.3042,1.3043,1.304,1.3036,1.3038,1.3036,1.3031,1.3028,1.3033,1.303,1.3026,1.303,1.3025,1.3026,1.3026,1.3051,1.3054,1.3022,1.3022,1.3022,1.3022,1.3022,1.3022,1.3015,1.3007,1.3012,1.3005,1.3008,1.3004,1.3004,1.3005,1.3006,1.3001,1.2999,1.3002,1.3005,1.3003,1.3001,1.3002,1.3001,1.2995,1.2998,1.3021,1.3024,1.3028,1.303,1.2994,1.2994,1.2973,1.2973,1.2973]}]]